Alexandria, LA

7:34 AM CST on December 11, 2017 (GMT -0600)
Alexandria International

Weather History for KAEX - September, 2012

Change the Weather History Date:

Friday, September 14, 2012

  Actual Average Record
Temperature  
Mean Temperature 80 °F 78 °F  
Max Temperature 92 °F 89 °F 102 °F (1906)
Min Temperature 67 °F 67 °F 43 °F (1902)
Degree Days  
Heating Degree Days 0 0  
Month to date heating degree days 0 0  
Since 1 July heating degree days 0 0  
Cooling Degree Days 15 13  
Month to date cooling degree days 219 203  
Year to date cooling degree days 2509 2190  
Growing Degree Days 29 (Base 50)    
Moisture  
Dew Point 68 °F    
Average Humidity 72    
Maximum Humidity 100    
Minimum Humidity 44    
Precipitation  
Precipitation 0.00 in 0.08 in 6.51 in (1901)
Month to date precipitation 0.14 1.18  
Year to date precipitation 43.68 37.41  
Sea Level Pressure  
Sea Level Pressure 30.12 in    
Wind  
Wind Speed 3 mph (ENE)    
Max Wind Speed 12 mph    
Max Gust Speed 15 mph    
Visibility 7 miles    
Events      
T = Trace of Precipitation, MM = Missing Value Source: NWS Daily Summary

Daily Weather History Graph

Daily Weather History Graph

Search for Another Location

Airport or City:

Trip Planner

Search our weather history database for the weather conditions in past years. The results will help you decide how hot, cold, wet, or windy it might be!

Date:

Astronomy

Sep. 14, 2012 Rise Set
Actual Time 6:54 AM CDT 7:16 PM CDT
Civil Twilight 6:29 AM CDT 7:40 PM CDT
Nautical Twilight 6:01 AM CDT 8:09 PM CDT
Astronomical Twilight 5:32 AM CDT 8:38 PM CDT
Moon 5:21 AM CDT (9/14) 6:12 PM CDT (9/14)
Length of Visible Light 13h 11m
Length of Day
12h 22m
Waning Crescent, 2% of the Moon is Illuminated
Sep 14
Waning Crescent
Sep 15
New
Sep 22
First Quarter
Sep 29
Full
Oct 8
Last Quarter

Hourly Weather History & Observations

Time (CDT) Temp. Heat Index Dew Point Humidity Pressure Visibility Wind Dir Wind Speed Gust Speed Precip Events Conditions
12:53 AM 73.0 °F - 69.1 °F 87% 30.14 in 9.0 mi Calm Calm - N/A   Clear
1:53 AM 72.0 °F - 69.1 °F 91% 30.13 in 8.0 mi Calm Calm - N/A   Clear
2:53 AM 70.0 °F - 69.1 °F 97% 30.12 in 5.0 mi Calm Calm - N/A   Clear
3:53 AM 70.0 °F - 68.0 °F 93% 30.11 in 5.0 mi Calm Calm - N/A   Clear
4:00 AM 69.8 °F - 68.0 °F 94% 30.10 in 1.8 mi Calm Calm - N/A   Clear
4:09 AM 69.8 °F - 68.0 °F 94% 30.10 in 3.0 mi Calm Calm - N/A   Clear
4:53 AM 68.0 °F - 66.9 °F 96% 30.12 in 6.0 mi Calm Calm - N/A   Clear
5:50 AM 68.0 °F - 66.2 °F 94% 30.11 in 1.8 mi Calm Calm - N/A   Partly Cloudy
5:53 AM 68.0 °F - 66.9 °F 96% 30.12 in 1.0 mi Calm Calm - N/A   Mist
5:56 AM 69.8 °F - 66.2 °F 88% 30.11 in 3.0 mi Calm Calm - N/A   Partly Cloudy
6:53 AM 68.0 °F - 66.0 °F 93% 30.14 in 3.0 mi Calm Calm - N/A   Clear
7:53 AM 71.1 °F - 69.1 °F 93% 30.14 in 6.0 mi Calm Calm - N/A   Clear
8:53 AM 75.9 °F - 71.1 °F 85% 30.15 in 9.0 mi East 3.5 mph - N/A   Clear
9:53 AM 79.0 °F - 71.1 °F 77% 30.16 in 10.0 mi ESE 4.6 mph - N/A   Clear
10:53 AM 82.9 °F 86.5 °F 69.1 °F 63% 30.16 in 10.0 mi Variable 4.6 mph - N/A   Mostly Cloudy
11:03 AM 82.4 °F 86.3 °F 69.8 °F 66% 30.15 in 10.0 mi Variable 5.8 mph - N/A   Scattered Clouds
11:53 AM 86.0 °F 89.4 °F 68.0 °F 55% 30.15 in 10.0 mi ENE 5.8 mph - N/A   Partly Cloudy
12:53 PM 86.0 °F 89.4 °F 68.0 °F 55% 30.15 in 10.0 mi East 3.5 mph - N/A   Partly Cloudy
1:53 PM 88.0 °F 90.3 °F 66.0 °F 48% 30.13 in 10.0 mi Variable 5.8 mph - N/A   Scattered Clouds
2:53 PM 90.0 °F 91.3 °F 64.0 °F 42% 30.09 in 10.0 mi NNE 5.8 mph - N/A   Clear
3:53 PM 89.1 °F 91.0 °F 64.9 °F 45% 30.08 in 10.0 mi ENE 4.6 mph - N/A   Partly Cloudy
4:53 PM 87.1 °F 89.9 °F 66.9 °F 51% 30.07 in 10.0 mi East 5.8 mph - N/A   Partly Cloudy
5:53 PM 88.0 °F 90.3 °F 66.0 °F 48% 30.07 in 10.0 mi ENE 6.9 mph - N/A   Clear
6:53 PM 82.9 °F 85.0 °F 66.0 °F 56% 30.08 in 10.0 mi East 4.6 mph - N/A   Clear
7:53 PM 77.0 °F - 68.0 °F 74% 30.09 in 10.0 mi Calm Calm - N/A   Clear
8:53 PM 77.0 °F - 69.1 °F 76% 30.12 in 8.0 mi Calm Calm - N/A   Scattered Clouds
9:53 PM 75.0 °F - 70.0 °F 84% 30.13 in 7.0 mi Calm Calm - N/A   Overcast
10:53 PM 75.9 °F - 71.1 °F 85% 30.14 in 10.0 mi NW 3.5 mph - N/A   Partly Cloudy
11:53 PM 73.9 °F - 71.1 °F 91% 30.14 in 6.0 mi NW 4.6 mph - N/A   Clear